{"data":{"norad_id":84406,"epoch":"2026-09-07T05:00:36.393120Z","epoch_age_seconds":1166659,"freshness":"AGED","line1":"1 84406U          26250.20875455  .00000225  00000+0  14066-2 0  9990","line2":"2 84406 101.7417  43.0804 0046564 226.1549 312.3554 12.67638637 83304","mean_motion":12.67638637,"eccentricity":0.0046564,"inclination_deg":101.7417,"raan_deg":43.0804,"arg_perigee_deg":226.1549,"mean_anomaly_deg":312.3554,"bstar":0.0014066,"rev_number":8330,"period_min":113.59704240381,"perigee_km":1355.3950746691,"apogee_km":1427.7528388673,"semimajor_km":7769.7109567682,"source":"CELESTRAK","updated_at":"2026-09-20T09:00:32.443289Z"}}